www.pogodaiklimat.ru

Погода и климат >> Архив погоды >> Россия >> Нижегородская область >> Нижний Новгород


АРХИВ ПОГОДЫ в Нижнем Новгороде

Время (UTC), дата Ветер
(напр.,м/с)
 
Видим.   Явления Облачность Т
(С)
Тd
(С)
f
(%)
Тe
(С)
Тes
(С)
Комфортность P
(гПа)
Po
(гПа)
Тmin
(С)
Tmax
(С)
R
(мм)
R24
(мм)
S
(см)
00 20.05 СЗ 2-7
{8}
4000 м слабый ливневой дождь 10/10 600 м
[Cb cap]
+12.2 +11.7 97 +11 +11 тепло 1007.2 988.5
03 20.05 СЗ 3-7
{10}
10 км {ливн. осадки} 10/10 1000 м
[Sc diur, vesp]
+10.2 +9.2 94 +8 +8 по сезону 1010.6 991.8 +10.1 2
06 20.05 С 1-6
{8}
10 км {ливн. осадки} 10/10 600 м
[Sc diur, vesp]
+10.9 +8.0 82 +11 +11 по сезону 1013.5 994.6
09 20.05 С 2-5
{7}
10 км 10/10 300 м
[Sc]
+11.0 +7.7 80 +10 +10 прохладно 1016.0 997.1
12 20.05 С 2-4
{6}
10 км 10/10 300 м
[Sc]
+11.3 +6.7 73 +10 +10 холодно 1018.1 999.1
15 20.05 С 2-5
{6}
10 км 9/9 600 м
[Sc]
+10.9 +5.8 71 +10 +10 прохладно 1019.5 1000.5 +11.3
18 20.05 СВ 1-2
{6}
10 км 9/0
[Ci fib]
+7.6 +4.1 78 +7 +7 прохладно 1022.2 1002.9
21 20.05 штиль 0
{3}
10 км ясно +5.2 +3.5 89 +4 +4 холодно 1023.2 1003.7
00 21.05 штиль 0
{1}
10 км ясно +3.5 +3.0 97 +2 +2 холодно 1024.8 1005.1
03 21.05 С 1-2
{2}
10 км ясно +8.0 +4.6 79 +7 +9 прохладно 1026.3 1007.0 +3.1
06 21.05 СВ 2-4
{4}
10 км ясно +12.8 +1.7 47 +12 +22 по сезону 1027.6 1008.5
09 21.05 С 2-4
{7}
10 км ясно +16.0 +1.9 39 +16 +31 опасность
простуды
1027.4 1008.5
12 21.05 СВ 2-6
{7}
10 км ясно +18.4 +0.2 29 +19 +29 тепло 1027.2 1008.5
15 21.05 СВ 2-4
{6}
10 км ясно +18.8 -1.4 25 +19 +21 тепло 1027.1 1008.4 +19.3
18 21.05 СВ 1-2
{6}
10 км ясно +12.8 +2.5 49 +13 +13 по сезону 1028.5 1009.4
21 21.05 В 1-2
{2}
10 км ясно +13.6 +1.5 44 +14 +14 тепло 1029.3 1010.2
00 22.05 штиль 0
{2}
10 км ясно +8.2 +4.1 75 +8 +8 по сезону 1030.4 1011.0
03 22.05 Ю 1-2
{2}
10 км ясно +15.1 +2.9 44 +16 +18 тепло 1031.2 1012.3 +8.2
06 22.05 ЮВ 2-4
{5}
10 км ясно +18.3 +1.3 32 +19 +29 тепло 1031.6 1012.8
09 22.05 ЮВ 2-6
{7}
10 км ясно +21.1 +1.9 28 +21 +36 комфорт 1030.6 1012.0
12 22.05 ЮВ 2-5
{7}
10 км 1/0
[Ci fib]
+22.5 +2.9 28 +22 +32 комфорт 1028.7 1010.2
15 22.05 Ю 1-4
{6}
10 км ясно +23.0 +0.9 23 +22 +25 комфорт 1027.0 1008.6 +23.5
18 22.05 штиль 0
{4}
10 км 4/0
[Ac trans Ci fib]
+17.0 +1.5 35 +17 +17 тепло 1026.8 1008.0
21 22.05 ЮВ 1-1
{1}
10 км 4/0
[Ac trans]
+17.7 +4.0 40 +19 +19 тепло 1025.9 1007.2
00 23.05 ЮВ 1-2
{3}
10 км 10/0
[Ac und]
+17.0 +5.1 45 +18 +18 тепло 1025.3 1006.6
03 23.05 Ю 1-4
{6}
10 км 9/0
[Ac trans]
+18.1 +8.2 52 +19 +20 тепло 1024.8 1006.2 +16.8
06 23.05 З 2-6
{9}
10 км 8/0
[Ac As]
+21.0 +10.4 51 +24 +28 комфорт 1024.5 1006.0
09 23.05 ЮЗ 2-5
{7}
10 км {ливн. осадки} 8/0
[Ac cast Cc]
+22.3 +12.9 55 +25 +32 комфорт 1023.4 1005.1
12 23.05 ЮЗ 1-3
{7}
10 км {ливн. осадки} 9/8 600 м
[Cu med, cong Ac cast]
+24.5 +12.9 48 +26 +28 жарко 1021.4 1003.2
15 23.05 ЮЗ 2-6
{6}
10 км 6/3 1000 м
[Cu med, cong Ac cast Cc]
+23.4 +11.8 48 +26 +27 жарко 1020.0 1001.7 +24.7 0.0
18 23.05 штиль 0
{5}
10 км 4/3 1000 м
[Cu med, cong Ci fib]
+19.7 +12.6 64 +21 +21 комфорт 1020.1 1001.7
21 23.05 С 1-2
{2}
10 км 3/3 1000 м
[Sc diur, vesp Ac cast]
+17.5 +9.8 61 +19 +19 тепло 1020.6 1002.0
00 24.05 штиль 0
{2}
10 км 3/3 1000 м
[Sc diur, vesp]
+13.9 +9.8 76 +14 +14 тепло 1020.8 1002.0
03 24.05 штиль 0
{2}
10 км 9/1 1000 м
[Sc diur, vesp Ac trans Cc]
+16.6 +11.4 71 +17 +18 тепло 1020.8 1002.2 +12.8
06 24.05 штиль 0-2
{3}
10 км 9/0
[Cc]
+19.9 +11.8 60 +21 +32 комфорт 1020.4 1002.0
09 24.05 СВ 1-3
{4}
10 км 10/3 600 м
[Cb cap Cs]
+20.2 +10.4 53 +23 +33 комфорт 1020.1 1001.7
12 24.05 С 1-4
{7}
10 км 10/3 600 м
[Cb cap Cs]
+21.3 +7.6 41 +22 +29 комфорт 1018.6 1000.2
15 24.05 С 1-3
{6}
10 км 10/3 600 м
[Cb cap Ci]
+21.6 +7.0 39 +22 +24 комфорт 1018.0 999.7 +22.0
18 24.05 СВ 2-6
{9}
10 км 10/0
[Ac trans Ci fib]
+17.2 +10.3 64 +18 +18 тепло 1019.0 1000.4
21 24.05 СВ 2-5
{6}
10 км 3/0
[Ac trans]
+14.3 +10.0 75 +14 +14 тепло 1019.5 1000.7
00 25.05 СВ 3-9
{9}
10 км 10/10 600 м
[Sc]
+12.8 +7.0 68 +12 +12 по сезону 1020.4 1001.5
03 25.05 СВ 3-7
{11}
10 км 10/0
[Cc]
+11.0 +1.9 53 +9 +11 прохладно 1021.9 1002.8 +10.6
06 25.05 СВ 4-9
{9}
10 км 10/0
[Cs]
+13.0 -0.2 40 +12 +17 прохладно 1023.6 1004.6
09 25.05 С 3-9
{11}
10 км 10/3 1000 м
[Sc Cc]
+13.6 -1.9 34 +13 +20 прохладно 1024.0 1005.0
12 25.05 С 3-10
{11}
10 км 6/6 1000 м
[Sc]
+14.8 -0.5 35 +14 +18 прохладно 1024.5 1005.6
15 25.05 С 3-9
{10}
10 км 6/6 1000 м
[Sc]
+14.1 -4.1 28 +13 +14 прохладно 1025.3 1006.4 +15.5
18 25.05 С 2-11
{11}
10 км ясно +11.1 -2.5 39 +10 +10 прохладно 1027.6 1008.4
21 25.05 СВ 1-3
{4}
10 км ясно +8.2 -0.9 53 +8 +8 прохладно 1029.5 1010.1
00 26.05 В 2 10 км ясно +6.1 -3.9 49 +4 +4 холодно 1031.5 1011.9
03 26.05 В 1-3
{6}
10 км ясно +7.4 -3.6 46 +7 +10 холодно 1033.4 1013.8 +5.0
06 26.05 С 1-3
{5}
10 км ясно +11.3 -3.6 35 +12 +23 опасность
простуды
1034.5 1015.2
09 26.05 СЗ 2-6
{6}
10 км ясно +14.2 -3.6 29 +14 +29 опасность
простуды
1033.9 1014.7
12 26.05 СЗ 2-8
{8}
10 км ясно +15.6 -3.8 26 +16 +26 прохладно 1032.0 1013.0
15 26.05 СЗ 2-4
{7}
10 км ясно +17.4 -1.7 27 +18 +20 тепло 1029.7 1010.9 +17.5
18 26.05 ЮЗ 1-3
{4}
10 км ясно +14.0 +1.3 42 +15 +15 по сезону 1029.3 1010.2
21 26.05 З 1-4
{4}
10 км ясно +12.7 +0.9 44 +13 +13 по сезону 1028.6 1009.5

 

Местоположение метеостанции Нижний Новгород (Нижегородская область, Россия): широта 56.27 долгота 44.00 высота над уровнем моря 157 м.

В архиве по умолчанию представлена погода в Нижнем Новгороде за последнюю неделю. Архивные данные за месяц целиком и за предыдущие месяцы, начиная с января 2011 года, Вы можете получить, выбрав интересующий диапазон дат из раскрывающегося списка и нажав кнопку "Ввод!".


*Определитесь, кто Вы:
робот инопланетянин человек

Внимание! Время в таблицах - всемирное. Для получения местного времени необходимо прибавить поправку, которая в Нижнем Новгороде равна 3 ч.

Смотрите также архив погоды в соседних городах и на ближайших метеорологических станциях:

Погода в Нижнем Новгороде аэропорт (Нижегородская область, Россия) (15 км)
Погода в Дальнем Константиново (Нижегородская область, Россия) (53 км)
Погода в Балахне (Нижегородская область, Россия) (54 км)
Погода в Волжской ГМО (Нижегородская область, Россия) (57 км)
Погода в Семенове (Нижегородская область, Россия) (60 км)
Погода в Павлово (Нижегородская область, Россия) (70 км)
Погода в Лысково (Нижегородская область, Россия) (70 км)
Погода в Арзамасе (Нижегородская область, Россия) (101 км)
Погода в Воскресенском (Нижегородская область, Россия) (106 км)
Погода в Вязниках (Владимирская область, Россия) (113 км)

Пояснения к столбцам:

Ветер - указаны скорость ветра в м/с - средняя за 10 мин, порывы в срок и между сроками (в фигурных скобках) и направление, откуда дует ветер: С - северный, СВ - северо-восточный, В - восточный, ЮВ - юго-восточный, Ю - южный, ЮЗ - юго-западный, З - западный, СЗ - северо-западный.
Видимость - горизонтальная дальность видимости в метрах или километрах. При видимости от 1 до 10 км при отсутствии осадков обычно наблюдается дымка, при ухудшении видимости до 1 км и менее - туман. В сухую погоду видимость может ухудшаться дымом, пылью или мглою.
Явления - указаны атмосферные явления, наблюдавшиеся в срок или в последний час перед сроком; фигурными скобками обозначены явления, наблюдавшиеся между сроками (за 1-3 часа до срока); квадратными скобками обозначены град или гололедные отложения с указанием их диаметра в мм.
Облачность - указаны через наклонную черту общая и нижняя облачность в баллах и высота нижней границы облаков в метрах; квадратными скобками обозначены формы облаков: Ci - перистые, Cs - перисто-слоистые, Cc - перисто-кучевые, Ac - высококучевые, As - высокослоистые, Sc - слоисто-кучевые, Ns - слоисто-дождевые, Cu - кучевые, Cb - кучево-дождевые. Подробнее классификацию облаков см. в Атласе облаков (PDF).
T - Температура воздуха - температура, измеренная на высоте 2 м над землей.
Td - Температура точки росы - температура, при понижении до которой содержащийся в воздухе водяной пар достигнет насыщения.
f - Относительная влажность воздуха - влажноcть воздуха, измеренная на высоте 2 м над землей.
Te - Эффективная температура - температура, которую ощущает одетый по сезону человек в тени. Характеристика душности погоды. При расчете учитывается влияние влажности воздуха и скорости ветра на теплоощущения человека.
Tes - Эффективная температура на солнце - температура, которую ощущает человек, с поправкой на солнечный нагрев. Характеристика знойности погоды. Зависит от высоты солнца над горизонтом, облачности и скорости ветра. Ночью, в пасмурную погоду, а также при ветре 12 м/с и более поправка равна нулю.
P - Атмосферное давление - приведенное к уровню моря атмосферное давление.
Po - Атмосферное давление - измеренное на уровне метеостанции атмосферное давление.
Tmin - Минимальная температура - минимум температуры воздуха на высоте 2 м над землей.
Tmax - Максимальная температура - максимум температуры воздуха на высоте 2 м над землей.
R - Количество осадков - Количество выпавших осадков за период времени, мм. При наведении курсора мыши на число - период времени, за который выпало указанное количество осадков.
R24 - Количество осадков - Количество выпавших осадков за 24 часа, мм.
S - Снежный покров - Высота снежного покрова, см. При наведении курсора мыши на число - состояние снежного покрова и степень покрытия местности в баллах.